Content
SEND FEEDBACK

Daily
Averages
Monthly
Summary
United States of America

ACHANG BAY, GUAM


Home > North America > United States > Guam
Elevation: 10 meters     Latitude: 13 16N     Longitude: 144 45E

WEATHER
 
SELECT A DAY
Number of Records: 342,038;   Date Range: 1/1/95 - 7/29/14
 
SHARE

PRINT THIS DATA

[ ← Previous Day ]
WEATHER ALMANAC - 16 JULY, 2013
[ Next Day → ]
[ °F ]   °C
Weather ElementAverageHighLow
Temperature27.6 °C30.3 °C (1:55 pm)25 °C (6:36 pm)
Dewpoint24.8 °C26.4 °C (11:55 am)23 °C (6:36 pm)
Humidity85.4 %94 % (9:42 pm)77 % (2:55 pm)
Barometer1008.8 hPa1010.2 hPa (9:31 pm)1007.1 hPa (3:55 pm)
Wind Speed15.1 km/h29.6 km/h (6:18 pm)
Weather ElementAverage
Visibility15.8 km
Wind DirectionESE (120 °)

Weather ElementTotal
Precipitation0.51 mm
Cooling Degree Days9.3 (Base 18.3)
Growing Degree Days17.7 (Base 10)
Averaged from 61 records on 16 July, 2013
WEATHER CONDITIONS BREAKOUT
WIND DIRECTION BREAKOUT
WEATHER BY HOUR - 16 JULY, 2013
[ °F ]   °C
Local TimeTemperatureDewpointHumidityBarometerVisibilityWind DirectionWind SpeedGust SpeedPrecipitationEventsConditions
1:55 AM26.6 °C24.4 °C88 %1008.5 hPa16.1 kmESE (110°)13 km/hPartly Cloudy
2:55 AM26.6 °C24.1 °C86 %1008.1 hPa16.1 kmESE (110°)11.1 km/hScattered Clouds
3:06 AM27 °C24 °C84 %1008.1 hPa16.1 kmESE (110°)13 km/hMostly Cloudy
3:08 AM27 °C24 °C84 %1008.1 hPa16.1 kmESE (110°)13 km/hScattered Clouds
3:09 AM27 °C24 °C84 %1008.1 hPa16.1 kmESE (110°)13 km/hMostly Cloudy
3:11 AM27 °C24 °C84 %1008.1 hPa16.1 kmESE (110°)13 km/hScattered Clouds
3:23 AM27 °C24 °C84 %1008.1 hPa16.1 kmESE (110°)14.8 km/hMostly Cloudy
3:25 AM27 °C25 °C89 %1008.1 hPa16.1 kmESE (110°)13 km/hScattered Clouds
3:39 AM27 °C24 °C84 %1008.1 hPa16.1 kmESE (120°)14.8 km/hMostly Cloudy
3:41 AM27 °C24 °C84 %1008.1 hPa16.1 kmEast (100°)14.8 km/hScattered Clouds
3:55 AM26.4 °C24.2 °C88 %1008.1 hPa16.1 kmESE (110°)11.1 km/hScattered Clouds
4:55 AM26.6 °C24.3 °C87 %1008.1 hPa16.1 kmESE (120°)11.1 km/hScattered Clouds
5:05 AM27 °C24 °C84 %1008.1 hPa16.1 kmESE (120°)14.8 km/hMostly Cloudy
5:07 AM27 °C24 °C84 %1008.1 hPa16.1 kmSE (130°)14.8 km/hScattered Clouds
5:15 AM27 °C24 °C84 %1008.1 hPa16.1 kmSE (130°)13 km/hMostly Cloudy
5:21 AM27 °C24 °C84 %1008.1 hPa16.1 kmESE (120°)16.7 km/hScattered Clouds
5:55 AM26.7 °C23.9 °C85 %1008.5 hPa16.1 kmSE (130°)16.7 km/hScattered Clouds
6:07 AM27 °C24 °C84 %1008.5 hPa16.1 kmESE (120°)16.7 km/hMostly Cloudy
6:17 AM27 °C24 °C84 %1008.5 hPa16.1 kmESE (120°)18.5 km/hScattered Clouds
6:55 AM27.2 °C24.6 °C86 %1008.8 hPa16.1 kmESE (120°)18.5 km/hPartly Cloudy
7:55 AM28.5 °C25 °C81 %1009.1 hPa16.1 kmSE (130°)20.4 km/hPartly Cloudy
8:28 AM28 °C25 °C84 %1009.5 hPa16.1 kmSE (130°)22.2 km/hMostly Cloudy
8:39 AM28 °C25 °C84 %1009.5 hPa16.1 kmSE (130°)16.7 km/hScattered Clouds
8:43 AM28 °C25 °C84 %1009.5 hPa16.1 kmSE (130°)18.5 km/hMostly Cloudy
8:45 AM28 °C25 °C84 %1009.5 hPa16.1 kmSE (130°)18.5 km/hScattered Clouds
8:48 AM28 °C25 °C84 %1009.5 hPa16.1 kmESE (110°)14.8 km/hMostly Cloudy
8:55 AM28.7 °C25.6 °C83 %1009.5 hPa16.1 kmSE (130°)16.7 km/hMostly Cloudy
9:01 AM28 °C26 °C89 %1009.5 hPa16.1 kmESE (120°)14.8 km/hScattered Clouds
9:25 AM29 °C26 °C84 %1009.5 hPa16.1 kmESE (120°)14.8 km/hMostly Cloudy
9:27 AM29 °C26 °C84 %1009.5 hPa16.1 kmEast (100°)14.8 km/hScattered Clouds
9:40 AM29 °C26 °C84 %1009.5 hPa16.1 kmESE (120°)16.7 km/hMostly Cloudy
9:55 AM28.7 °C25.8 °C84 %1009.5 hPa16.1 kmSE (130°)16.7 km/hMostly Cloudy
10:19 AM30 °C26 °C79 %1009.5 hPa16.1 kmSE (140°)18.5 km/hScattered Clouds
10:55 AM29.7 °C25.5 °C78 %1009.1 hPa16.1 kmESE (120°)16.7 km/hScattered Clouds
11:55 AM30.2 °C26.4 °C80 %1009.1 hPa16.1 kmESE (120°)14.8 km/hPartly Cloudy
12:55 PM30.1 °C26.2 °C79 %1008.1 hPa16.1 kmESE (110°)14.8 km/hScattered Clouds
1:55 PM30.3 °C26.4 °C79 %1007.5 hPa16.1 kmESE (110°)14.8 km/hPartly Cloudy
2:55 PM29.8 °C25.4 °C77 %1007.5 hPa16.1 kmESE (120°)22.2 km/hPartly Cloudy
3:55 PM29.7 °C25.6 °C78 %1007.1 hPa16.1 kmEast (100°)16.7 km/hClear
4:55 PM28.6 °C25.3 °C82 %1007.5 hPa16.1 kmEast (100°)11.1 km/hMostly Cloudy
5:55 PM28.4 °C25.6 °C85 %1008.1 hPa16.1 kmEast (90°)13 km/hPartly Cloudy
6:12 PM28 °C24 °C79 %1008.5 hPa16.1 kmSE (130°)27.8 km/hMostly Cloudy
6:18 PM27 °C24 °C84 %1008.5 hPa8 kmSSE (160°)29.6 km/hRainLight Rain
6:20 PM27 °C24 °C84 %1008.5 hPa6.4 kmSouth (170°)20.4 km/hRainLight Rain
6:36 PM25 °C23 °C89 %1008.8 hPa16.1 kmSSW (200°)9.3 km/hLight Drizzle
6:40 PM25 °C23 °C89 %1008.8 hPa16.1 kmSSW (200°)11.1 km/hMostly Cloudy
6:55 PM26 °C23.6 °C87 %1008.8 hPa16.1 kmCalm0.51 mmPartly Cloudy
7:55 PM26.3 °C24.9 °C92 %1009.5 hPa16.1 kmENE (70°)11.1 km/hClear
8:55 PM26.9 °C25 °C89 %1009.8 hPa16.1 kmEast (100°)11.1 km/hPartly Cloudy
9:31 PM27 °C25 °C89 %1010.2 hPa16.1 kmEast (90°)13 km/hMostly Cloudy
9:33 PM27 °C25 °C89 %1010.2 hPa16.1 kmEast (100°)13 km/hScattered Clouds
9:42 PM27 °C26 °C94 %1010.2 hPa16.1 kmESE (120°)18.5 km/hMostly Cloudy
9:44 PM27 °C26 °C94 %1010.2 hPa16.1 kmSE (130°)22.2 km/hMostly Cloudy
9:46 PM27 °C25 °C89 %1010.2 hPa16.1 kmSE (130°)18.5 km/hMostly Cloudy
9:54 PM27 °C25 °C89 %1010.2 hPa16.1 kmSE (130°)18.5 km/hScattered Clouds
9:55 PM26.6 °C25.2 °C92 %1010.2 hPa16.1 kmSE (130°)18.5 km/hScattered Clouds
10:55 PM26.3 °C24.4 °C89 %1010.2 hPa16.1 kmSE (130°)11.1 km/hClear
11:35 PM27 °C25 °C89 %1009.8 hPa16.1 kmEast (80°)7.4 km/hLight Drizzle
11:44 PM27 °C25 °C89 %1009.8 hPa16.1 kmESE (120°)7.4 km/hScattered Clouds
11:55 PM26.9 °C25.5 °C92 %1009.8 hPa16.1 kmSSE (150°)5.6 km/h0 mmScattered Clouds
11:58 PM27 °C26 °C94 %1009.8 hPa16.1 kmSouth (170°)11.1 km/hMostly Cloudy
Hourly data recorded from PGUA, located 0 kilometers away from Achang Bay, Guam







STORIES FROM OUR PARTNERS